Weather History for Danville, IL

Change the Weather History Date:

Monday, May 27, 2013

  Actual Average (KLAF) Record (KLAF)
Temperature  
Mean Temperature 68 °F 66 °F  
Max Temperature 79 °F 77 °F 93 °F (2012)
Min Temperature 58 °F 55 °F 36 °F (1992)
Degree Days  
Heating Degree Days 0 3  
Month to date heating degree days 150  
Since 1 July heating degree days 5640  
Cooling Degree Days 4 3  
Month to date cooling degree days 50  
Year to date cooling degree days 63  
Growing Degree Days 18 (Base 50)    
Moisture  
Dew Point 62 °F    
Average Humidity 87    
Maximum Humidity 96    
Minimum Humidity 68    
Precipitation  
Precipitation 0.00 in 0.14 in 1.46 in (2000)
Month to date precipitation 3.62  
Year to date precipitation 13.45  
Sea Level Pressure  
Sea Level Pressure 29.95 in    
Wind  
Wind Speed 11 mph (SSE)    
Max Wind Speed 22 mph    
Max Gust Speed 40 mph    
Visibility 7 miles    
Events Rain    
T = Trace of Precipitation, MM = Missing Value Source: NWS Daily Summary

Daily Weather History Graph

Daily Weather History Graph

Search for Another Location

Airport:

Trip Planner

Search our weather history database for the weather conditions in past years. The results will help you decide how hot, cold, wet, or windy it might be!

Date:

Astronomy

May. 27, 2013 Rise Set
Actual Time 5:25 AM CDT 8:10 PM CDT
Civil Twilight 4:53 AM CDT 8:42 PM CDT
Nautical Twilight 4:13 AM CDT 9:22 PM CDT
Astronomical Twilight 3:28 AM CDT 10:08 PM CDT
Moon 10:49 PM CDT (5/27) 8:02 AM CDT (5/27)
Length of Visible Light 15h 48m
Length of Day
14h 44m
Waning Gibbous, 91% of the Moon is Illuminated
May 27
Waning Gibbous
May 31
Last Quarter
Jun 8
New
Jun 16
First Quarter
Jun 23
Full

Hourly Weather History & Observations

Time (CDT) Temp. Dew Point Humidity Pressure Visibility Wind Dir Wind Speed Gust Speed Precip Events Conditions
12:15 AM 59.9 °F 56.5 °F 88% 30.06 in 7.0 mi SE 16.1 mph 21.9 mph N/A Rain Light Rain
12:35 AM 60.1 °F 56.5 °F 88% 30.05 in 10.0 mi SE 15.0 mph - N/A   Mostly Cloudy
12:55 AM 60.1 °F 56.3 °F 87% 30.05 in 7.0 mi SE 12.7 mph - N/A   Scattered Clouds
1:15 AM 60.3 °F 56.5 °F 87% 30.05 in 7.0 mi SE 11.5 mph 18.4 mph N/A   Clear
1:35 AM 60.3 °F 56.5 °F 87% 30.08 in 7.0 mi North 10.4 mph - N/A   Mostly Cloudy
1:55 AM 59.9 °F 56.8 °F 90% 30.07 in 7.0 mi NE 11.5 mph - N/A   Overcast
2:15 AM 59.4 °F 57.2 °F 93% 30.07 in 7.0 mi NE 10.4 mph - N/A Rain Light Rain
2:35 AM 59.2 °F 57.2 °F 93% 30.07 in 5.0 mi NE 9.2 mph - N/A Rain Light Rain
2:55 AM 59.0 °F 57.2 °F 94% 30.08 in 5.0 mi NE 8.1 mph - N/A Rain Light Rain
3:15 AM 58.6 °F 57.2 °F 95% 30.08 in 5.0 mi NE 8.1 mph - N/A   Overcast
3:35 AM 58.8 °F 57.2 °F 94% 30.07 in 5.0 mi ENE 5.8 mph - N/A Rain Light Rain
3:55 AM 58.6 °F 57.2 °F 95% 30.06 in 5.0 mi East 9.2 mph - N/A   Overcast
4:15 AM 58.6 °F 56.8 °F 94% 30.05 in 5.0 mi East 8.1 mph - N/A   Scattered Clouds
4:35 AM 58.6 °F 56.8 °F 94% 30.04 in 5.0 mi East 11.5 mph - N/A   Mostly Cloudy
4:55 AM 58.8 °F 56.7 °F 93% 30.03 in 5.0 mi ESE 12.7 mph - N/A   Mostly Cloudy
5:15 AM 59.0 °F 56.7 °F 92% 30.03 in 7.0 mi ESE 10.4 mph 17.3 mph N/A Rain Light Rain
5:35 AM 59.2 °F 56.8 °F 92% 30.03 in 7.0 mi ESE 11.5 mph - N/A   Mostly Cloudy
5:55 AM 59.2 °F 56.7 °F 91% 30.03 in 5.0 mi SE 12.7 mph 16.1 mph N/A   Mostly Cloudy
6:15 AM 59.4 °F 56.8 °F 91% 30.03 in 7.0 mi ESE 11.5 mph - N/A Rain Light Rain
6:35 AM 59.5 °F 57.2 °F 92% 30.01 in 7.0 mi ESE 11.5 mph - N/A Rain Light Rain
6:55 AM 59.9 °F 57.2 °F 91% 30.00 in 10.0 mi SE 13.8 mph - N/A Rain Light Rain
7:15 AM 59.9 °F 56.8 °F 90% 29.99 in 10.0 mi ESE 12.7 mph - N/A Rain Light Rain
7:35 AM 60.3 °F 57.2 °F 90% 29.98 in 7.0 mi ESE 10.4 mph 17.3 mph N/A   Scattered Clouds
7:55 AM 60.6 °F 57.2 °F 88% 29.97 in 7.0 mi ESE 11.5 mph 19.6 mph N/A   Clear
8:15 AM 61.5 °F 57.6 °F 87% 29.98 in 7.0 mi ESE 12.7 mph 17.3 mph N/A   Clear
8:35 AM 62.2 °F 57.9 °F 86% 29.98 in 7.0 mi ESE 9.2 mph - N/A   Clear
8:55 AM 62.8 °F 58.1 °F 85% 29.98 in 7.0 mi ESE 8.1 mph - N/A Rain Light Rain
9:15 AM 63.5 °F 58.8 °F 85% 30.00 in 7.0 mi SSE 5.8 mph - N/A Rain Rain
9:35 AM 63.7 °F 59.4 °F 86% 30.00 in 7.0 mi South 6.9 mph - N/A Rain Light Rain
9:55 AM 64.8 °F 59.5 °F 83% 29.98 in 7.0 mi SSE 10.4 mph - N/A Rain Light Rain
10:15 AM 65.3 °F 59.7 °F 82% 29.98 in 7.0 mi SSE 10.4 mph - N/A   Scattered Clouds
10:35 AM 65.7 °F 59.7 °F 81% 29.96 in 10.0 mi SSE 8.1 mph - N/A Rain Light Rain
10:55 AM 66.2 °F 60.6 °F 82% 29.96 in 7.0 mi SSE 10.4 mph - N/A Rain Light Rain
11:15 AM 66.7 °F 61.0 °F 82% 29.95 in 7.0 mi South 11.5 mph - N/A Rain Light Rain
11:35 AM 66.7 °F 61.0 °F 82% 29.95 in 7.0 mi South 10.4 mph - N/A Rain Rain
11:55 AM 67.1 °F 61.3 °F 82% 29.94 in 7.0 mi SSE 12.7 mph - N/A   Scattered Clouds
12:15 PM 68.2 °F 62.2 °F 81% 29.93 in 5.0 mi South 12.7 mph - N/A   Haze
12:35 PM 70.3 °F 64.0 °F 80% 29.93 in 5.0 mi South 10.4 mph - N/A   Haze
12:55 PM 73.6 °F 65.1 °F 75% 29.93 in 5.0 mi SSW 17.3 mph 23.0 mph N/A   Haze
1:15 PM 73.9 °F 65.1 °F 74% 29.93 in 5.0 mi SSW 15.0 mph 23.0 mph N/A   Haze
1:35 PM 74.3 °F 65.3 °F 73% 29.94 in 10.0 mi SW 16.1 mph - N/A   Scattered Clouds
1:55 PM 75.7 °F 66.7 °F 74% 29.93 in 7.0 mi SW 12.7 mph 19.6 mph N/A   Scattered Clouds
2:15 PM 75.6 °F 66.6 °F 74% 29.93 in 7.0 mi SW 15.0 mph - N/A   Scattered Clouds
2:35 PM 76.5 °F 67.3 °F 73% 29.92 in 7.0 mi WSW 10.4 mph - N/A   Clear
2:55 PM 77.9 °F 68.4 °F 72% 29.90 in 5.0 mi SW 11.5 mph - N/A   Haze
3:15 PM 79.0 °F 68.2 °F 69% 29.89 in 4.0 mi SW 12.7 mph - N/A   Haze
3:35 PM 79.3 °F 68.4 °F 69% 29.88 in 5.0 mi SW 10.4 mph - N/A   Haze
3:55 PM 79.2 °F 67.8 °F 68% 29.87 in 7.0 mi WSW 8.1 mph - N/A   Clear
4:15 PM 79.0 °F 68.0 °F 69% 29.86 in 7.0 mi SW 6.9 mph - N/A   Clear
4:35 PM 71.1 °F 67.1 °F 87% 29.87 in 0.8 mi SW 5.8 mph - N/A Rain Heavy Rain
4:55 PM 72.5 °F 68.0 °F 86% 29.86 in 7.0 mi SSW 12.7 mph 17.3 mph N/A Rain Light Rain
5:15 PM 70.9 °F 66.7 °F 87% 29.88 in 5.0 mi SW 21.9 mph 40.3 mph N/A Rain Rain
5:35 PM 68.9 °F 65.7 °F 89% 29.87 in 10.0 mi West 13.8 mph 19.6 mph N/A Rain Rain
5:55 PM 67.6 °F 65.3 °F 92% 29.87 in 7.0 mi West 4.6 mph - N/A Rain Rain
6:15 PM 67.3 °F 65.3 °F 93% 29.87 in 10.0 mi South 4.6 mph - N/A Rain Rain
6:35 PM 67.3 °F 65.1 °F 93% 29.85 in 10.0 mi SSE 9.2 mph - N/A Rain Rain
6:55 PM 67.1 °F 64.8 °F 92% 29.88 in 10.0 mi NNW 4.6 mph - N/A Rain Light Rain
7:15 PM 67.3 °F 64.6 °F 91% 29.86 in 10.0 mi ESE 4.6 mph - N/A Rain Light Rain
7:35 PM 67.3 °F 64.4 °F 90% 29.84 in 10.0 mi SE 3.5 mph - N/A Rain Light Rain
7:55 PM 67.1 °F 64.6 °F 92% 29.82 in 10.0 mi Calm Calm - N/A Rain Light Rain
8:15 PM 65.8 °F 63.9 °F 93% 29.83 in 10.0 mi NNW 3.5 mph - N/A   Clear
8:35 PM 65.3 °F 63.7 °F 94% 29.83 in 10.0 mi North 3.5 mph - N/A   Clear
8:55 PM 65.3 °F 64.0 °F 96% 29.85 in 10.0 mi Calm Calm - N/A   Scattered Clouds
9:15 PM 64.8 °F 63.7 °F 96% 29.86 in 7.0 mi Calm Calm - N/A   Scattered Clouds
9:35 PM 64.8 °F 63.7 °F 96% 29.88 in 7.0 mi South 4.6 mph - N/A   Scattered Clouds
9:55 PM 64.8 °F 63.7 °F 96% 29.89 in 7.0 mi SSE 5.8 mph - N/A   Scattered Clouds
10:15 PM 65.3 °F 63.7 °F 94% 29.90 in 10.0 mi SSE 4.6 mph - N/A   Scattered Clouds
10:35 PM 64.8 °F 63.3 °F 95% 29.90 in 7.0 mi SSW 5.8 mph - N/A   Scattered Clouds
10:55 PM 64.8 °F 63.5 °F 96% 29.91 in 7.0 mi South 8.1 mph - N/A   Clear
11:15 PM 65.3 °F 63.5 °F 94% 29.90 in 10.0 mi South 6.9 mph - N/A   Scattered Clouds
11:35 PM 65.5 °F 63.5 °F 93% 29.91 in 10.0 mi South 5.8 mph - N/A   Scattered Clouds
11:55 PM 65.3 °F 63.5 °F 94% 29.90 in 10.0 mi South 5.8 mph - N/A   Scattered Clouds